Voltar ao catálogo

STARLINK-30435

AtivoComunicaçõesVLEO
NORAD 57842·PAYLOAD·🇺🇸 United States

Lançado Sep 12, 2023 de Vandenberg Space Force Base

Loading…

Próximas Passagens (próximas 24 horas)

TLE

AtualizadoSource: CelesTrak SupGP

Época: Sep 15, 2026, 02:08 UTC

1 57842C 23141C   26258.08937500  .00047438  00000+0  15253-2 0  2583
2 57842  53.1571 123.0972 0001238  77.0288 214.8372 15.31681773    10

Acompanhe STARLINK-30435 em tempo real com AllMySat

Download on the App Store